Location: Ledbetter Hills
(32.6924°N, 96.9261°W)
Time: 06:19:18
(UTC+00:00)

Daily predictions for brighter satellites

Satellite Brightness Start Highest point End
(mag) Time Altitude Azimuth Time Altitude Azimuth Time Altitude Azimuth
Cosmos 1025 Rocket 3.1 12:02:59 10° S 12:07:19 83° E 12:11:41 10° N
Cosmos 2278 Rocket 3.8 12:07:17 13° W 12:07:54 13° W 12:10:22 10° SW
Cosmos 1943 Rocket 3.9 12:09:39 11° W 12:09:40 11° W 12:11:02 10° WSW
Cosmos 1674 Rocket 3.6 12:08:57 10° SSW 12:13:17 56° W 12:17:38 10° N
Cosmos 1943 3.1 12:08:26 10° SSW 12:14:00 72° WNW 12:19:37 10° NNE
Cosmos 2297 4.1 12:09:50 10° NNW 12:15:27 66° ENE 12:21:00 10° SSE
USA 229 DEB 4.2 12:13:02 10° WSW 12:18:00 28° NW 12:23:24 10° N
USA 229 4.2 12:13:14 10° WSW 12:18:12 29° NW 12:23:37 10° N
Cosmos 1484 Rocket 2.5 12:15:22 10° N 12:18:50 61° WNW 12:22:16 10° SSW
BREEZE-M DEB (TANK) 2.7 12:17:29 10° WSW 12:19:54 35° NW 12:22:12 10° NE
Cosmos 2369 Rocket 2.5 12:14:40 10° NNW 12:20:22 76° ENE 12:26:04 10° SSE
Cosmos 1400 Rocket 2.5 12:16:57 10° N 12:20:37 78° W 12:24:13 10° S
Helios 1A Rocket 2.9 12:17:58 10° S 12:21:08 39° W 12:24:19 10° NNW
Cosmos 2221 Rocket 3.6 12:20:35 10° SSW 12:25:03 68° W 12:29:35 10° N
Cosmos 1869 4.5 12:23:01 10° NW 12:25:25 18° W 12:27:50 10° SW
Cosmos 1812 3.4 12:27:20 10° NW 12:29:31 19° W 12:31:41 10° SW
Cosmos 371 Rocket 4.1 12:26:33 10° NW 12:30:45 30° W 12:34:57 10° SSW
Cosmos 968 Rocket 3.5 12:29:47 10° NNW 12:35:01 77° WSW 12:40:14 10° S
ATLAS 3B R/B 3.9 12:33:01 10° WSW 12:39:07 26° NW 12:45:29 10° N
IGS 5A 3.5 23:45:01 10° S 23:48:59 84° W 23:52:59 10° NNW
SAR-Lupe-4 3.8 23:47:49 10° SSE 23:51:15 47° ENE 23:54:42 10° N
RESURS DK-1 4.3 23:55:15 10° NE 23:55:31 10° ENE 23:55:48 10° ENE
